Location: Démuin
(49.8193°N, 2.5372°E)
Time: 10:19:31
(UTC+00:00)

Daily predictions for brighter satellites

Satellite Brightness Start Highest point End
(mag) Time Altitude Azimuth Time Altitude Azimuth Time Altitude Azimuth
ATLAS 2AS CENTAUR R/B 3.8 16:25:59 10° NW 16:31:36 26° N 16:37:10 10° ENE
Cosmos 1844 Rocket 3.9 16:29:01 10° WSW 16:34:11 38° NW 16:39:23 10° NNE
UNK 4.4 16:30:38 10° NNE 16:34:54 36° E 16:39:09 10° SSE
Cosmos 1459 Rocket 4.2 16:29:38 10° S 16:35:57 82° W 16:42:22 10° N
DNEPR-1 R/B 4.4 16:31:40 10° NW 16:36:04 63° SW 16:41:08 10° SSE
YAOGAN 1 4.3 16:34:36 10° E 16:36:20 12° NE 16:38:03 10° NNE
COSMOS 2406 4.4 16:36:39 10° N 16:40:57 21° NE 16:45:15 10° E
Cosmos 2084 Rocket 3.4 16:37:21 10° SW 16:41:32 80° SE 16:45:45 10° NE
Cosmos 2100 Rocket 4.4 16:37:30 10° SSW 16:43:39 67° WNW 16:49:47 10° N
ATLAS CENTAUR R/B 2.5 16:40:59 10° WSW 16:44:03 29° NW 16:47:09 10° NNE
Cosmos 1441 Rocket 3.3 16:42:24 10° NNW 16:45:45 67° W 16:49:04 10° S
Cosmos 2221 Rocket 4.4 16:41:57 10° NNW 16:46:22 57° W 16:50:42 10° S
Cosmos 1833 Rocket 3.0 16:40:53 10° NNW 16:46:33 78° WSW 16:52:11 10° SSE
SAR-Lupe-4 3.9 16:43:10 10° SE 16:46:34 43° ENE 16:49:59 10° N
ARIANE 5 R/B 2.6 16:42:28 10° SE 16:47:16 50° ENE 16:52:06 10° N
USA 215 3.4 16:48:16 10° SE 16:54:49 82° SSW 17:01:25 10° WNW
Timation 1 Rocket 4.4 16:49:02 10° NNW 16:54:55 56° NE 17:00:47 10° SE
IRS-P3 4.4 16:52:59 10° SE 16:58:03 47° ENE 17:03:08 10° N
MOS 1 Rocket 3.7 16:56:17 10° SE 17:00:11 34° ENE 17:04:16 10° N
ATLAS 5 CENTAUR R/B 2.5 16:56:03 10° NW 17:00:19 58° SW 17:05:35 10° SSE
Cosmos 1484 Rocket 4.1 17:00:52 10° S 17:04:11 39° W 17:07:33 10° NNW
Iridium 4 Rocket 4.3 17:01:30 10° SSW 17:06:23 51° W 17:10:54 10° N
Resurs 01 Rocket 3.6 17:08:58 11° NE 17:08:58 11° NE 17:09:52 10° NE
Cosmos 2233 Rocket 4.0 17:02:25 10° S 17:08:43 85° E 17:15:06 10° N
RESURS DK-1 2.2 17:05:06 10° NNW 17:09:06 63° ENE 17:13:04 10° SE
Cosmos 1602 4.2 17:06:50 10° NNE 17:09:24 24° ENE 17:11:57 10° SE
Cosmos 407 Rocket 3.8 17:04:49 10° S 17:09:45 46° ESE 17:14:39 10° NE
Cosmos 1725 Rocket 4.4 17:03:31 10° SSW 17:09:46 69° WNW 17:16:06 10° N
Cosmos 2061 Rocket 4.0 17:04:57 10° S 17:11:15 81° E 17:17:31 10° NNE
ISS -3.0 17:12:03 10° SW 17:15:12 39° SSE 17:17:12 19° E
Geosat FO 4.4 17:12:34 10° SE 17:15:16 39° NE 17:18:00 10° NNW
Cosmos 1782 Rocket 3.7 17:11:04 10° SSW 17:15:30 77° W 17:19:58 10° N
CZ-2D R/B 2.6 17:13:15 10° SSE 17:16:25 78° ENE 17:19:34 10° N
Cosmos 1869 3.2 17:13:51 10° S 17:17:15 48° E 17:20:39 10° NNE
ERS-1 4.4 17:13:17 10° SSE 17:18:25 76° ENE 17:23:32 10° NNW
USA 281 4.3 17:15:06 14° E 17:18:52 23° NE 17:23:49 10° N
SPOT 1/Viking Rocket 3.9 17:14:23 10° SE 17:19:13 42° ENE 17:24:05 10° N
Cosmos 1300 Rocket 4.0 17:15:21 10° SSW 17:19:42 63° WNW 17:24:04 10° N
COSMO-SKYMED 1 3.7 17:21:26 19° ENE 17:22:29 21° E 17:25:37 10° SE
SJ-12 3.7 17:19:25 10° SSE 17:23:13 89° ENE 17:27:02 10° NNW
Cosmos 1464 Rocket 4.5 17:19:04 10° SSE 17:24:46 37° E 17:30:24 10° NNE
AQUARIUS 4.0 17:22:37 10° SSE 17:27:01 79° ENE 17:31:27 10° NNW
SL-12 R/B(2) 4.4 17:19:48 10° SSW 17:27:37 65° ESE 17:36:59 11° NE
Cosmos 540 Rocket 3.4 17:23:59 10° NNW 17:29:09 85° ENE 17:34:16 10° SSE
BREEZE-M DEB (TANK) 2.5 17:27:04 10° SW 17:29:29 51° SSE 17:32:21 21° E
Cosmos 1400 Rocket 3.8 17:28:14 10° SE 17:31:12 23° E 17:31:12 23° E
Cosmos 1975 Rocket 3.6 17:28:11 10° NNW 17:32:29 60° W 17:36:47 10° S
Spot 4 Rocket 4.2 17:28:09 10° SE 17:33:01 46° ENE 17:37:54 10° N
Cosmos 1763 Rocket 3.7 17:29:24 10° NNW 17:34:37 76° WSW 17:39:44 10° SSE
Cosmos 1812 2.1 17:33:48 10° S 17:36:37 49° E 17:37:34 32° NE
Cosmos 1140 Rocket 4.1 17:36:35 10° SW 17:41:40 56° WNW 17:46:45 10° NNE
Cosmos 2151 Rocket 4.0 17:37:41 10° SSE 17:41:52 41° E 17:45:29 14° NNE
Cosmos 2058 2.7 17:38:35 10° N 17:42:33 64° ENE 17:46:30 10° SSE
SMAP 4.2 17:38:42 10° S 17:43:10 46° W 17:47:40 10° NNW
Cosmos 44 Rocket 3.4 17:39:47 10° SSW 17:44:27 57° ESE 17:47:06 26° NE
SKYMED 2 3.6 17:45:23 12° NNE 17:49:20 53° E 17:53:34 10° S
Cosmos 1943 Rocket 2.1 17:43:52 10° SSW 17:49:29 79° ESE 17:54:09 15° NNE
Helios 1A Rocket 3.6 17:51:57 28° SE 17:51:57 28° SE 17:54:02 10° SSE
Okean 1 Rocket 3.7 17:47:51 10° SSE 17:51:43 33° E 17:51:43 33° E
CZ-2D R/B 3.3 17:47:55 10° SSE 17:52:02 72° ENE 17:56:16 10° N
SJ-7 4.1 17:48:27 10° SSE 17:52:03 55° ENE 17:55:40 10° N
IRAS Rocket 4.1 17:47:00 10° SSE 17:52:31 68° ENE 17:58:01 10° NNW
Sich 1 Rocket 4.2 17:48:43 10° SSE 17:52:50 35° E 17:53:29 34° ENE
Cosmos 2082 Rocket 2.1 17:47:39 10° NNW 17:53:19 84° ENE 17:58:56 10° SSE
PSLV R/B 3.4 17:49:42 10° SSE 17:53:38 53° ENE 17:57:35 10° N
Cosmos 2026 Rocket 4.3 17:51:56 10° N 17:57:39 41° ENE 18:03:23 10° SE
Cosmos 1072 Rocket 4.4 17:51:45 10° S 17:57:50 68° E 18:03:54 10° NNE
Cosmos 2278 Rocket 2.1 17:52:36 10° SSW 17:58:16 86° ESE 18:02:47 17° NNE
NOAA 6 4.1 17:55:26 10° SE 18:00:24 52° ENE 18:05:24 10° N
BREEZE-M DEB (TANK) 3.4 17:58:25 10° SW 18:01:14 55° SSE 18:03:16 33° E
Aureole 3 Rocket 2.4 17:58:19 10° SSW 18:01:19 72° W 18:03:12 22° N
BREEZE-M DEB (TANK) 2.9 17:59:33 10° WSW 18:02:09 82° SSE 18:04:09 35° ENE
SL-16 R/B 4.2 17:59:54 10° N 18:05:20 32° WNW 18:10:45 10° WSW
Geosat 4.0 18:04:10 32° ESE 18:06:17 55° NE 18:11:11 10° NNW
Cosmos 2251 Rocket 3.4 18:03:48 10° SSW 18:09:05 80° ESE 18:12:38 22° NNE
YAOGAN 1 2.4 18:07:14 10° SSE 18:11:30 84° ENE 18:15:47 10° NNW
Cosmos 371 Rocket 3.4 18:08:06 10° S 18:12:42 47° ESE 18:12:52 47° E
Cosmos 304 Rocket 3.8 18:09:13 10° S 18:13:46 50° ESE 18:13:57 50° E
Cosmos 841 Rocket 3.4 18:09:06 10° NNW 18:14:23 69° ENE 18:17:15 27° SE
SJ 16-02 1.2 18:11:03 10° S 18:15:18 64° ESE 18:15:42 61° ENE
SL-19 R/B 4.0 18:10:31 10° SSE 18:15:44 89° ENE 18:21:01 10° NNW
Nadezhda 4 Rocket 4.0 18:13:29 10° N 18:19:49 86° W 18:26:03 10° S
CZ-4C R/B 3.8 18:15:42 10° WNW 18:19:57 24° N 18:22:35 18° NNE
Cosmos 1862 3.5 18:18:37 10° NNW 18:22:13 61° W 18:25:47 10° S
Resurs 1-3 3.6 18:19:11 10° S 18:23:29 79° WSW 18:27:49 10° NNW
ATLAS 2AS CENTAUR R/B 3.0 18:17:36 10° NW 18:24:09 47° NE 18:25:35 41° ENE
COSMOS 2406 3.1 18:20:22 10° NNW 18:26:06 84° ENE 18:29:07 29° SSE
Cosmos 1627 Rocket 4.4 18:22:11 10° N 18:28:17 63° ENE 18:34:23 10° SSE
Cosmos 1656 Rocket 4.1 18:24:15 10° S 18:28:32 41° SE 18:28:32 41° SE
Cosmos 2195 Rocket 4.4 18:27:22 10° N 18:33:43 83° E 18:40:04 10° S
Cosmos 1536 Rocket 4.3 18:29:58 10° NNW 18:34:18 52° W 18:38:34 10° S
Okean 2 Rocket 3.1 18:32:16 10° SSW 18:36:40 75° W 18:37:52 47° N
Cosmos 1190 Rocket 4.2 18:34:44 10° SSW 18:40:01 70° WNW 18:42:26 33° NNE
Cosmos 2344 3.8 18:34:31 10° NW 18:42:21 81° NE 18:47:32 33° SE
Cosmos 676 Rocket 3.9 18:37:35 10° SSW 18:42:53 81° ESE 18:43:15 76° ENE
Resurs 01 Rocket 3.1 18:46:22 26° N 18:46:22 26° N 18:48:22 10° N
Meteor 2-3 Rocket 3.6 18:39:54 10° NNW 18:45:38 87° W 18:49:59 18° S
Cosmos 2297 Rocket 4.4 18:47:13 10° N 18:48:17 12° N 18:48:17 12° N
ISS -1.5 18:48:31 10° W 18:50:07 26° W 18:50:07 26° W
Cosmos 1954 Rocket 4.2 18:47:44 10° SSW 18:52:59 67° WNW 18:54:18 48° N
COSMO-SKYMED 1 3.5 18:57:48 43° WNW 18:58:02 44° WNW 19:01:57 10° SW
USA 281 3.0 19:02:00 72° E 19:02:30 76° ENE 19:09:05 10° NNW
Cosmos 1943 Rocket 4.1 19:29:18 10° W 19:33:50 25° NW 19:35:40 21° NNW
Cosmos 2278 Rocket 4.1 19:38:36 10° W 19:43:05 23° NW 19:44:37 21° NNW
SJ 16-02 4.1 19:50:50 10° W 19:52:17 16° W 19:52:17 16° W
CZ-4C R/B 4.4 20:05:05 10° NW 20:07:32 21° NNW 20:07:32 21° NNW
ATLAS 2AS CENTAUR R/B 3.7 20:08:39 10° NW 20:13:01 40° WNW 20:13:01 40° WNW
